TimeMST,TemperatureF,Dew PointF,Humidity,Sea Level PressureIn,VisibilityMPH,Wind Direction,Wind SpeedMPH,Gust SpeedMPH,PrecipitationIn,Events,Conditions,WindDirDegrees,DateUTC
12:21 AM,23.0,19.4,86,30.13,1.8,NW,20.7,25.3,0.00,Snow,Light Snow,310,2013-01-02 07:21:00
12:24 AM,21.2,19.4,93,30.13,1.0,WNW,18.4,-,0.00,Snow,Light Snow,300,2013-01-02 07:24:00
12:42 AM,21.2,17.6,86,30.13,1.8,WNW,16.1,-,0.00,Snow,Light Snow,290,2013-01-02 07:42:00
12:45 AM,21.2,17.6,86,30.13,2.5,WNW,17.3,-,0.00,Snow,Light Snow,290,2013-01-02 07:45:00
12:53 AM,21.9,18.0,85,30.26,6.0,WNW,17.3,-,0.00,,Overcast,290,2013-01-02 07:53:00
1:17 AM,21.2,17.6,86,30.13,10.0,West,17.3,-,0.00,,Overcast,280,2013-01-02 08:17:00
1:53 AM,21.9,17.1,82,30.26,10.0,WNW,18.4,-,0.00,,Overcast,290,2013-01-02 08:53:00
2:53 AM,21.0,15.1,78,30.26,10.0,WNW,16.1,-,N/A,,Overcast,290,2013-01-02 09:53:00
3:27 AM,21.2,14.0,74,30.12,10.0,WNW,18.4,-,N/A,,Overcast,290,2013-01-02 10:27:00
3:53 AM,21.0,14.0,74,30.25,9.0,WNW,18.4,-,0.00,Snow,Light Snow,300,2013-01-02 10:53:00
4:17 AM,19.4,12.2,74,30.14,10.0,NW,11.5,-,0.00,,Overcast,320,2013-01-02 11:17:00
4:40 AM,19.4,12.2,74,30.14,10.0,NW,13.8,-,0.00,,Overcast,310,2013-01-02 11:40:00
4:53 AM,19.9,12.9,74,30.27,8.0,NW,16.1,-,0.00,Snow,Light Snow,310,2013-01-02 11:53:00
5:53 AM,19.0,10.9,71,30.30,10.0,NW,12.7,-,0.00,,Overcast,310,2013-01-02 12:53:00
6:53 AM,19.9,10.9,68,30.30,10.0,WNW,17.3,-,N/A,,Overcast,290,2013-01-02 13:53:00
7:53 AM,19.9,10.9,68,30.29,10.0,WNW,18.4,-,N/A,,Overcast,300,2013-01-02 14:53:00
8:53 AM,19.0,10.9,71,30.30,10.0,NW,17.3,23.0,N/A,,Overcast,310,2013-01-02 15:53:00
9:53 AM,19.9,10.0,65,30.34,10.0,WNW,17.3,-,N/A,,Overcast,300,2013-01-02 16:53:00
10:53 AM,23.0,12.0,63,30.32,10.0,NW,18.4,27.6,N/A,,Mostly Cloudy,320,2013-01-02 17:53:00
11:53 AM,24.1,12.9,62,30.28,10.0,WNW,24.2,-,N/A,,Partly Cloudy,300,2013-01-02 18:53:00
12:53 PM,27.0,12.9,56,30.24,10.0,WNW,21.9,27.6,N/A,,Clear,290,2013-01-02 19:53:00
1:53 PM,26.1,10.9,53,30.25,10.0,WNW,19.6,26.5,N/A,,Partly Cloudy,300,2013-01-02 20:53:00
2:53 PM,26.1,12.0,55,30.26,10.0,WNW,23.0,33.4,N/A,,Clear,300,2013-01-02 21:53:00
3:53 PM,25.0,12.0,58,30.30,10.0,WNW,17.3,-,N/A,,Mostly Cloudy,300,2013-01-02 22:53:00
4:53 PM,23.0,10.0,58,30.35,10.0,NW,19.6,26.5,N/A,,Overcast,320,2013-01-02 23:53:00
5:53 PM,19.0,9.0,65,30.38,10.0,NNW,15.0,-,N/A,,Overcast,340,2013-01-03 00:53:00
6:53 PM,18.0,8.1,65,30.41,10.0,NW,11.5,-,N/A,,Overcast,320,2013-01-03 01:53:00
7:53 PM,15.1,7.0,70,30.43,10.0,NW,9.2,-,N/A,,Overcast,320,2013-01-03 02:53:00
8:53 PM,12.0,5.0,73,30.46,10.0,WNW,11.5,-,N/A,,Overcast,300,2013-01-03 03:53:00
9:53 PM,10.0,3.0,73,30.47,10.0,NW,11.5,-,N/A,,Clear,320,2013-01-03 04:53:00
10:53 PM,9.0,1.9,73,30.47,10.0,NW,11.5,-,N/A,,Clear,320,2013-01-03 05:53:00
11:53 PM,6.1,-0.0,76,30.48,10.0,NW,5.8,-,N/A,,Clear,320,2013-01-03 06:53:00